Location: Le Vaud
(46.4779°N, 6.2346°E)
Time: 20:50:28
(UTC+00:00)

CZ-4C R/B - Pass Details

Date: 18 February 2020
Orbit: 641 x 1361 km, 63.4° (Epoch: 07 April)

Event Time Altitude Azimuth Distance (km) Brightness Sun altitude
Exits shadow 05:47:22 - 304° (NW) 2,714 4.3 -8.8°
Reaches altitude 10° 05:48:09 10° 310° (NW) 2,543 4.2 -8.7°
Maximum altitude 05:52:10 18° 353° (N) 2,172 4.2 -8.0°
Drops below altitude 10° 05:56:40 10° 34° (NE) 2,893 5.3 -7.2°
Sets 06:00:35 0° 53° (NE) 4,000 6.4 -6.6°
